Noatak, AK

8:33 PM AKST on February 27, 2017 (GMT -0900)
Noatak

Weather History for PAWN - January, 2014

Change the Weather History Date:

Thursday, January 23, 2014

  Actual Average Record
Temperature  
Mean Temperature 30 °F -  
Max Temperature 37 °F 0 °F 37 °F (2014)
Min Temperature 26 °F -11 °F -50 °F (2011)
Degree Days  
Heating Degree Days 34    
Moisture  
Dew Point 27 °F    
Average Humidity 84    
Maximum Humidity 93    
Minimum Humidity 74    
Precipitation  
Precipitation 0.01 in - - ()
Sea Level Pressure  
Sea Level Pressure 29.53 in    
Wind  
Wind Speed 8 mph (NE)    
Max Wind Speed 13 mph    
Max Gust Speed 17 mph    
Visibility 8 miles    
Events      
Averages and records for this station are not official NWS values.
T = Trace of Precipitation, MM = Missing Value Source: NWS Daily Summary

Daily Weather History Graph

Daily Weather History Graph

Search for Another Location

Airport or City:

Trip Planner

Search our weather history database for the weather conditions in past years. The results will help you decide how hot, cold, wet, or windy it might be!

Date:

Astronomy

Jan. 23, 2014 Rise Set
Actual Time 11:39 AM AKST 4:29 PM AKST
Civil Twilight 10:19 AM AKST 5:48 PM AKST
Nautical Twilight 9:07 AM AKST 7:01 PM AKST
Astronomical Twilight 8:01 AM AKST 8:06 PM AKST
Moon 2:57 AM AKST (1/23) 11:28 AM AKST (1/23)
Length of Visible Light 7h 29m
Length of Day
4h 49m
Waning Gibbous, 54% of the Moon is Illuminated
Jan 23
Waning Gibbous
Jan 23
Last Quarter
Jan 30
New
Feb 6
First Quarter
Feb 14
Full

Hourly Weather History & Observations

Time (AKST) Temp. Windchill Dew Point Humidity Pressure Visibility Wind Dir Wind Speed Gust Speed Precip Events Conditions
12:16 AM 26.6 °F 16.2 °F 21.2 °F 80% 29.55 in 10.0 mi NNE 11.5 mph 17.3 mph N/A   Mostly Cloudy
12:36 AM 26.6 °F 15.7 °F 21.2 °F 80% 29.54 in 10.0 mi NNE 12.7 mph - N/A   Mostly Cloudy
12:56 AM 28.4 °F 19.1 °F 21.2 °F 74% 29.54 in 10.0 mi NNE 10.4 mph - N/A   Overcast
1:16 AM 28.4 °F 18.0 °F 23.0 °F 80% 29.53 in 10.0 mi NNE 12.7 mph - N/A   Overcast
1:36 AM 28.4 °F 19.1 °F 23.0 °F 80% 29.53 in 10.0 mi NNE 10.4 mph - N/A   Overcast
1:56 AM 28.4 °F 19.7 °F 23.0 °F 80% 29.52 in 10.0 mi NNE 9.2 mph - N/A   Overcast
2:16 AM 28.4 °F 19.7 °F 23.0 °F 80% 29.52 in 10.0 mi NNE 9.2 mph - N/A   Overcast
2:36 AM 28.4 °F 20.4 °F 23.0 °F 80% 29.51 in 10.0 mi NNE 8.1 mph - N/A   Overcast
2:56 AM 28.4 °F 20.4 °F 23.0 °F 80% 29.50 in 10.0 mi NNE 8.1 mph - N/A   Overcast
3:16 AM 28.4 °F 21.2 °F 23.0 °F 80% 29.50 in 10.0 mi NNE 6.9 mph - N/A   Overcast
3:36 AM 28.4 °F 21.2 °F 24.8 °F 86% 29.50 in 10.0 mi NNE 6.9 mph - N/A   Overcast
3:56 AM 28.4 °F 22.2 °F 24.8 °F 86% 29.50 in 10.0 mi NNE 5.8 mph - N/A   Overcast
4:16 AM 28.4 °F 21.2 °F 24.8 °F 86% 29.49 in 10.0 mi NNE 6.9 mph - N/A   Overcast
4:36 AM 30.2 °F 22.6 °F 24.8 °F 80% 29.48 in 10.0 mi NNE 8.1 mph - N/A   Overcast
4:56 AM 28.4 °F 21.2 °F 24.8 °F 86% 29.48 in 5.0 mi NNE 6.9 mph - N/A   Overcast
5:16 AM 30.2 °F 23.4 °F 26.6 °F 86% 29.47 in 7.0 mi NNE 6.9 mph - N/A   Overcast
5:36 AM 30.2 °F 25.4 °F 26.6 °F 86% 29.47 in 5.0 mi NNE 4.6 mph - N/A   Overcast
5:56 AM 30.2 °F 22.6 °F 26.6 °F 86% 29.46 in 5.0 mi NNE 8.1 mph - N/A   Mostly Cloudy
6:16 AM 30.2 °F 20.8 °F 26.6 °F 86% 29.45 in 10.0 mi NNE 11.5 mph - N/A   Overcast
6:36 AM 30.2 °F 21.3 °F 26.6 °F 86% 29.45 in 10.0 mi NNE 10.4 mph - N/A   Overcast
6:56 AM 30.2 °F 22.6 °F 26.6 °F 86% 29.45 in 10.0 mi NNE 8.1 mph - N/A   Overcast
7:16 AM 30.2 °F 22.6 °F 26.6 °F 86% 29.44 in 10.0 mi NNE 8.1 mph - N/A   Overcast
7:36 AM 30.2 °F 23.4 °F 24.8 °F 80% 29.44 in 10.0 mi NNE 6.9 mph - N/A   Overcast
7:56 AM 30.2 °F 24.3 °F 24.8 °F 80% 29.44 in 10.0 mi NE 5.8 mph - N/A   Overcast
8:16 AM 28.4 °F 23.3 °F 24.8 °F 86% 29.45 in 10.0 mi NE 4.6 mph - N/A   Overcast
8:36 AM 28.4 °F 24.6 °F 24.8 °F 86% 29.45 in 10.0 mi NNE 3.5 mph - N/A   Overcast
8:56 AM 28.4 °F 23.3 °F 24.8 °F 86% 29.45 in 10.0 mi NNE 4.6 mph - N/A   Overcast
9:16 AM 28.4 °F 23.3 °F 24.8 °F 86% 29.46 in 10.0 mi North 4.6 mph - N/A   Overcast
9:36 AM 28.4 °F 21.2 °F 24.8 °F 86% 29.46 in 10.0 mi NNE 6.9 mph - N/A   Overcast
9:56 AM 28.4 °F 21.2 °F 24.8 °F 86% 29.47 in 9.0 mi NNE 6.9 mph - N/A   Overcast
10:16 AM 28.4 °F 21.2 °F 24.8 °F 86% 29.48 in 3.0 mi NNE 6.9 mph - N/A   Overcast
10:36 AM 28.4 °F 21.2 °F 24.8 °F 86% 29.48 in 2.0 mi NE 6.9 mph - N/A   Overcast
10:56 AM 28.4 °F 23.3 °F 24.8 °F 86% 29.49 in 1.2 mi NNE 4.6 mph - N/A   Overcast
11:16 AM 28.4 °F 22.2 °F 26.6 °F 93% 29.50 in 1.5 mi NNE 5.8 mph - N/A   Overcast
11:36 AM 28.4 °F 21.2 °F 26.6 °F 93% 29.50 in 1.2 mi NNE 6.9 mph - N/A   Overcast
11:56 AM 28.4 °F 22.2 °F 26.6 °F 93% 29.50 in 2.5 mi NE 5.8 mph - N/A   Overcast
12:16 PM 28.4 °F 23.3 °F 26.6 °F 93% 29.51 in 1.8 mi NE 4.6 mph - N/A   Overcast
12:36 PM 28.4 °F 21.2 °F 26.6 °F 93% 29.51 in 1.2 mi NE 6.9 mph - N/A   Overcast
12:56 PM 28.4 °F 20.4 °F 26.6 °F 93% 29.52 in 1.2 mi NE 8.1 mph - N/A   Overcast
1:16 PM 30.2 °F 25.4 °F 26.6 °F 86% 29.52 in 2.0 mi NE 4.6 mph - N/A   Overcast
1:36 PM 30.2 °F 24.3 °F 26.6 °F 86% 29.53 in 1.0 mi NE 5.8 mph - N/A   Overcast
1:56 PM 30.2 °F 25.4 °F 28.4 °F 93% 29.53 in 1.2 mi NE 4.6 mph - N/A   Overcast
2:16 PM 30.2 °F 24.3 °F 28.4 °F 93% 29.53 in 8.0 mi NE 5.8 mph - N/A   Overcast
2:36 PM 33.8 °F 27.7 °F 28.4 °F 81% 29.53 in 10.0 mi ENE 6.9 mph - N/A   Overcast
2:56 PM 32.0 °F 27.5 °F 28.4 °F 87% 29.53 in 10.0 mi ENE 4.6 mph - N/A   Overcast
3:16 PM 33.8 °F 27.0 °F 30.2 °F 87% 29.54 in 10.0 mi ESE 8.1 mph - N/A   Overcast
3:36 PM 33.8 °F 27.7 °F 30.2 °F 87% 29.54 in 10.0 mi ESE 6.9 mph - N/A   Overcast
3:56 PM 33.8 °F 28.6 °F 30.2 °F 87% 29.55 in 10.0 mi East 5.8 mph - N/A   Overcast
4:16 PM 32.0 °F 26.4 °F 28.4 °F 87% 29.55 in 10.0 mi NNE 5.8 mph - N/A   Overcast
4:36 PM 32.0 °F 27.5 °F 28.4 °F 87% 29.56 in 10.0 mi NE 4.6 mph - N/A   Overcast
4:56 PM 33.8 °F 29.6 °F 28.4 °F 81% 29.57 in 10.0 mi NE 4.6 mph - N/A   Overcast
5:16 PM 33.8 °F 27.7 °F 30.2 °F 87% 29.57 in 10.0 mi SE 6.9 mph - N/A   Overcast
5:36 PM 35.6 °F 29.2 °F 30.2 °F 81% 29.58 in 10.0 mi ESE 8.1 mph - N/A   Overcast
5:56 PM 35.6 °F 28.6 °F 30.2 °F 81% 29.58 in 10.0 mi ESE 9.2 mph - N/A   Overcast
6:16 PM 35.6 °F 28.0 °F 30.2 °F 81% 29.58 in 10.0 mi ESE 10.4 mph - N/A   Overcast
6:36 PM 35.6 °F 31.7 °F 30.2 °F 81% 29.58 in 10.0 mi NNE 4.6 mph - N/A   Overcast
6:56 PM 35.6 °F 28.6 °F 30.2 °F 81% 29.59 in 10.0 mi East 9.2 mph - N/A   Overcast
7:16 PM 35.6 °F 29.9 °F 30.2 °F 81% 29.59 in 10.0 mi East 6.9 mph - N/A   Unknown
7:36 PM 35.6 °F 28.0 °F 28.4 °F 75% 29.59 in 10.0 mi ESE 10.4 mph - N/A   Unknown
7:56 PM 35.6 °F 28.0 °F 30.2 °F 81% 29.60 in 10.0 mi ESE 10.4 mph - N/A   Overcast
8:16 PM 35.6 °F 29.9 °F 30.2 °F 81% 29.60 in 10.0 mi East 6.9 mph - N/A   Overcast
8:36 PM 35.6 °F 32.8 °F 30.2 °F 81% 29.61 in 10.0 mi East 3.5 mph - N/A   Overcast
8:56 PM 35.6 °F 32.8 °F 30.2 °F 81% 29.61 in 10.0 mi NNW 3.5 mph - N/A   Overcast
9:16 PM 33.8 °F 27.7 °F 28.4 °F 81% 29.61 in 10.0 mi North 6.9 mph - N/A   Unknown
9:36 PM 33.8 °F 27.0 °F 28.4 °F 81% 29.61 in 10.0 mi NNE 8.1 mph - N/A   Unknown
9:56 PM 33.8 °F 28.6 °F 30.2 °F 87% 29.62 in 10.0 mi North 5.8 mph - N/A   Overcast
10:16 PM 33.8 °F 28.6 °F 30.2 °F 87% 29.62 in 10.0 mi NNE 5.8 mph - N/A   Overcast
10:36 PM 33.8 °F 30.8 °F 30.2 °F 87% 29.63 in 10.0 mi ENE 3.5 mph - N/A   Overcast
10:56 PM 33.8 °F 29.6 °F 30.2 °F 87% 29.62 in 10.0 mi ENE 4.6 mph - N/A   Overcast
11:16 PM 33.8 °F 30.8 °F 30.2 °F 87% 29.62 in 10.0 mi NE 3.5 mph - N/A   Overcast
11:36 PM 35.6 °F 27.1 °F 30.2 °F 81% 29.62 in 10.0 mi ENE 12.7 mph - N/A   Overcast
11:56 PM 37.4 °F 31.4 °F 30.2 °F 75% 29.62 in 10.0 mi East 8.1 mph - 0.01 in   Overcast